Other Public Products
Issued by NWS Grand Forks, ND

Home | Current Version | Previous Version | Text Only | Print | Product List | Glossary Off
Versions: 1 2 3 4 5 6 7 8 9 10 11 12 13 14 15 16 17 18 19 20 21 22 23 24 25 26 27 28 29 30 31 32 33 34 35 36 37 38 39 40 41 42 43 44 45 46 47 48 49 50

000
FPUS83 KFGF 080231
OPUFGF
PRAIRIE TO PINES WEATHER ROUNDUP
NATIONAL WEATHER SERVICE EASTERN NORTH DAKOTA/GRAND FORKS ND
800 PM CST SUN FEB 07 2016

 **SATELLITE DATA USED TO AUGMENT SKY COVER AT AUTOMATED STATIONS**
 *****  WEATHER ACROSS EASTERN NORTH DAKOTA  *****

CITY           SKY/WX    TMP DP  RH WIND       PRES   REMARKS
GRAND FORKS    LGT SNOW  15   8  73 N33G44    30.00S VSB 1   WCI  -6
GRAND FORKS AF LGT SNOW  14   9  79 N29G35    30.01R SQUALL  WCI  -7
GRAND CITY NWS   N/A     12 N/A N/A N21         N/A  WCI  -6
BUXTON           N/A    N/A N/A N/A NW25G41     N/A
DEVILS LAKE    FLURRIES  19  14  81 N26G37    30.03R WCI   1
FARGO          LGT SNOW  17  13  84 N29G36    29.99R VSB 3/4 WCI  -2
WAHPETON ARPT  CLOUDY    18  12  79 N20G29    29.96R WCI   1
$$

 *****  WEATHER ACROSS CENTRAL AND WESTERN NORTH DAKOTA  *****

CITY           SKY/WX    TMP DP  RH WIND       PRES   REMARKS
JAMESTOWN      CLOUDY    23  14  68 N30G39    29.99R WCI   5
BISMARCK       CLOUDY    36  20  52 N22G32    30.11R
MINOT          FLURRIES  31  16  54 NW26G36   30.13R WCI  17
MINOT AFB      CLOUDY    29  19  67 NW26G35   30.12R WCI  14
GARRISON         N/A     28  18  66 N30G47    30.13R WCI  12
WILLISTON      CLEAR     31  18  58 NW28G37   30.27R WCI  17
DICKINSON      CLEAR     29  14  53 NW24G33   30.19R WCI  15
HETTINGER      CLEAR     31  14  49 NW28G38   30.21R WCI  17
$$

 *****  OTHER OBSERVATIONS NORTHEAST NORTH DAKOTA  *****

CITY           SKY/WX    TMP DP  RH WIND       PRES   REMARKS
WALHALLA       LGT SNOW  14  12  92 NW18G32   30.05R WCI  -3
LANGDON        LGT SNOW  12   9  85 N21       30.00R WCI  -6
CAVALIER       LGT SNOW  14   9  79 N21G31    30.04R WCI  -4
GRAFTON        CLOUDY    12   9  85 N31G37    30.03S FOG     WCI -10
CANDO          FLURRIES  19  16  86 N24G35    30.07R WCI   2
FORT TOTTEN      N/A     19  14  80 N12       29.95S WCI   7
ROLLA          FLURRIES  18  14  86 NW37G45   30.04R WCI  -4
RUGBY          CLOUDY    23  19  86 NW31G38   30.06R WCI   5
 ***** THE ABOVE OBSERVATIONS ARE NON NWS ARE NOT QUALITY
        CONTROLLED AND MAY MIS-REPORT RAIN FOR SNOW...
$$

 *****  OTHER OBSERVATIONS SOUTHEAST NORTH DAKOTA *****

CITY           SKY/WX    TMP DP  RH WIND       PRES   REMARKS
COOPERSTOWN    NOT AVBL
VALLEY CITY    FLURRIES  19  16  86 N26G36    30.01R WCI   1
OAKES          LGT SNOW  23  18  80 N31G39    29.99R WCI   5
GWINNER        MOCLDY    23  18  80 N25G38    29.99R WCI   7
SHEYENNE NWR     N/A     20  16  84 N16       29.95S WCI   6
BUFFALO          N/A     17  13  84 N25         N/A  WCI  -2
WYNDMERE         N/A     19  18  93 NW26        N/A  WCI   1
 ***** THE ABOVE OBSERVATIONS ARE NON NWS ARE NOT QUALITY
       CONTROLLED AND MAY MIS-REPORT RAIN FOR SNOW...
$$

  *****  WEATHER ACROSS NORTHERN MINNESOTA  *****

CITY           SKY/WX    TMP DP  RH WIND       PRES   REMARKS
FLAG ISLAND    LGT SNOW   7   1  78 NW21      29.85R WCI -13
WARROAD        LGT SNOW   7   1  78 NW22G28   29.88R WCI -14
ROSEAU         LGT SNOW   7   1  78 NW23G30   29.90S WCI -14
HALLOCK        SNOW      10   7  85 N28G36    29.99R VSB 1/2 WCI -11
THF RVR FALLS  NOT AVBL
HALSTAD          N/A     13  10  88 N29         N/A  WCI  -7
FOSSTON        LGT SNOW   9   3  78 NW21      29.89R WCI -11
BAUDETTE       LGT SNOW   7   1  76 NW21G31   29.81R WCI -13
WASKISH        LGT SNOW   9   3  78 NW15G23   29.82R WCI  -8
CROOKSTON      SNOW      10   9  92 N40G48    29.97R VSB<1/4 WCI -14
$$
  *****  WEATHER ACROSS CENTRAL AND WEST MINNESOTA  *****

CITY           SKY/WX    TMP DP  RH WIND       PRES   REMARKS
BEMIDJI        LGT SNOW   9   4  82 NW21G26   29.81R WCI -11
PARK RAPIDS    LGT SNOW  11   4  73 NW20G29   29.80R WCI  -7
WADENA         LGT SNOW  10   5  79 NW22G31   29.82R WCI  -9
DETROIT LAKES  LGT SNOW  12   9  85 NW29G43   29.88S VSB 3/4 WCI  -9
MOORHEAD       LGT SNOW  16  12  86 N29       29.98R WCI  -4
FERGUS FALLS   LGT SNOW  14  10  85 N32G44    29.94R WCI  -7
ELBOW LAKE     LGT SNOW  15  10  83 NW29G38   29.90R WCI  -6
MORRIS MN      CLOUDY    19  12  73 NW39G46   29.88S HAZE    WCI  -2
STAPLES        LGT SNOW  10   7  85 NW25      29.80R WCI -10
WHEATON        LGT SNOW  19  18  93 NW24G33   29.96S VSB 1   WCI   2
$$
  *****  WEATHER ELSEWHERE ACROSS MINNESOTA  *****

CITY           SKY/WX    TMP DP  RH WIND       PRES   REMARKS
DULUTH         LGT SNOW  23  18  81 NW20G25   29.57R BLWGSNOWWCI   8
INTRNTL FALLS  CLOUDY    19  13  77 N15       29.72R WCI   5
ELY            LGT SNOW  27  27 100 NW7       29.56R WCI  19
CLOQUET        LGT SNOW  23  19  86 NW13      29.61R WCI  11
BRAINERD       LGT SNOW  14   8  77 NW18G26   29.75R WCI  -3
HIBBING        FLURRIES  18  14  84 NW18G24   29.63R WCI   2
ALEXANDRIA     LGT SNOW  14   8  77 NW24G39   29.83S WCI  -5
SAINT CLOUD    FLURRIES  17  10  74 NW22G28   29.77R WCI   0
MINNEAPOLIS    LGT SNOW  22  17  81 NW21G31   29.74R BLWGSNOWWCI   6
$$

  *****  WEATHER ACROSS SOUTH DAKOTA  *****

CITY           SKY/WX    TMP DP  RH WIND       PRES   REMARKS
SIOUX FALLS    LGT SNOW  25  20  81 NW18      29.95F WCI  11
BROOKINGS      LGT SNOW  22  18  85 N22G33    29.92R FOG     WCI   6
WATERTOWN      LGT SNOW  21  15  78 NW25G36   29.92R WCI   4
HURON          CLOUDY    29  20  69 N26G32    30.01R WCI  14
SISSETON         N/A     20  17  88 N20       29.95R WCI   4
ABERDEEN       CLOUDY    29  18  63 N28G39    30.02R WCI  14
MITCHELL       CLOUDY    31  22  69 N23G36    30.04S WCI  18
PIERRE         CLEAR     33  15  47 NW28G36   30.13R WCI  20
MOBRIDGE       MOCLDY    34  17  50 NW30G39   30.07R WCI  20
RAPID CITY     CLEAR     33   9  36 NW30G46   30.25R WCI  19
$$

  *****  SOME WEATHER IN NEARBY STATES *****

CITY           SKY/WX    TMP DP  RH WIND       PRES   REMARKS
GLASGOW MT     CLEAR     29  18  63 NW15      30.39R WCI  18
GREAT FALLS MT CLOUDY    37  12  35 SW3       30.42F
CHEYENNE WY    CLEAR     21  14  74 N10G18    30.31R WCI  10
SCOTTSBLUFF NE CLOUDY    29  15  56 NW18      30.35R WCI  16
OMAHA NE       CLOUDY    34  28  79 NW23G31   29.98S WCI  22
DES MOINES IA  FLURRIES  36  29  75 NW21G33   29.85F
DAVENPORT IA   CLEAR     33  27  78 W12       29.78F WCI  24
CHICAGO IL     PTCLDY    37  27  67 W12       29.74S
EAU CLAIRE WI  LGT SNOW  30  25  81 NW17G25   29.63R WCI  18
LA CROSSE WI   CLOUDY    37  30  75 W15G22    29.65F
$$

  *****  SOME NATIONAL WEATHER *****

CITY           SKY/WX    TMP DP  RH WIND       PRES   REMARKS
LA GUARDIA NY  CLOUDY    40  30  67 NE9       29.97F
RALEIGH NC     CLOUDY    42  22  44 N7        29.86S
ATLANTA GA     PTCLDY    46  21  37 W3        29.99S
NEW ORLEANS LA CLEAR     51  33  50 SW12      30.18R
OKLAHOMA CITY  CLEAR     48  24  39 N20G26    30.22R
ALBUQUERQUE NM CLEAR     48  17  29 N15       30.34R
SALT LAKE CITY PTCLDY    30  25  81 N6        30.62R HAZE    WCI  24
LOS ANGELES CA CLEAR     72  24  16 CALM      30.08S
BOISE ID       CLEAR     42  34  73 CALM      30.62S
SEATTLE WA     MOCLDY    47  37  68 NW5       30.52F
$$

*** WEATHER ACROSS MANITOBA...SASKATCHEWAN AND ONTARIO ***
                ***ONTARIO***

CITY           SKY/WX    TMP DP  RH WIND       PRES   REMARKS
GERALDTON      FLURRIES   1  -4  78 E16       29.74F WCI -18
THUNDER BAY    LGT SNOW  16  12  86 N6        29.65R WCI   7
SIOUX LOOKOUT  LGT SNOW   9   5  85 NE3       29.74R
TORONTO        MOCLDY    39  32  75 E8        29.84F
BIG TROUT LK   CLEAR     -9 -17  70 E8        30.07R WCI -26
PICKLE LAKE    FLURRIES   0  -6  78 E12       29.83R WCI -18
DRYDEN         LGT SNOW  12   9  85 N7        29.73R WCI   2
KENORA         LGT SNOW  10   5  79 NW16G22   29.79R DRFTSNOWWCI  -7
$$
                *** MANITOBA***

CITY           SKY/WX    TMP DP  RH WIND       PRES   REMARKS
BRANDON        CLOUDY    19  12  73 NW23G31   30.08S WCI   2
DAUPHIN        FLURRIES  19  12  73 NW12      30.14R WCI   7
ISLAND LAKE    FLURRIES   0  -6  78 N7        30.03R WCI -13
PILOT MOUND      N/A     16  10  79 N18G28      N/A  WCI  -1
THE PAS        FLURRIES  12   9  85 NW13      30.17R WCI  -3
THOMPSON       LGT SNOW   0  -6  78 NW8       30.10  WCI -15
WINNIPEG       LGT SNOW   9   3  78 N21       30.04R VSB 1   WCI -11
LYNN LAKE      FLURRIES   3  -2  78 NW16      30.13R WCI -16
CHURCHILL      FLURRIES  -9 -15  77 S6        30.19F WCI -23
GILLAM         LGT SNOW  -8 -13  77 NE5       30.11S WCI -19
$$
                ***SASKATCHEWAN***

CITY           SKY/WX    TMP DP  RH WIND       PRES   REMARKS
ESTEVAN        PTCLDY    25  19  80 NW20      30.22R WCI  11
KINDERSLEY     PTCLDY    21  18  86 W10       30.36S WCI  10
LLOYDMINSTER   PTCLDY    25  18  74 W14       30.32S WCI  13
PRINCE ALBERT  CLEAR     21  16  79 N7        30.26R WCI  13
REGINA         PTCLDY    25  19  80 NW16G22   30.28R WCI  12
YORKTON        CLEAR     21  16  79 NW18G29   30.16R WCC1F1C2F2C3F3C4F4C5F5C6F6C7F7C8F8C9F9CaFaCbFbCcFcCdFdCe!


USA.gov is the U.S. government's official web portal to all federal, state and local government web resources and services.